Location: Ammerl�gen
(47.2167°N, 9.6000°E)
Time: 10:43:28
(UTC+00:00)

CZ-4 R/B DEB - Pass Details

Date: 22 October 2021
Orbit: 738 x 791 km, 98.5° (Epoch: 26 November)

Event Time Altitude Azimuth Distance (km) Brightness Sun altitude
Exits shadow 18:31:20 58° 81° (E) 862 ? -22.7°
Maximum altitude 18:31:30 58° 71° (ENE) 859 ? -22.8°
Drops below altitude 10° 18:36:22 10° 353° (N) 2,260 ? -23.6°
Sets 18:38:42 0° 350° (N) 3,191 ? -24.0°
